FW6835 Weather Reports


time (UTC)temp
F
wind
direction
speed
knots
gust
knots
rain 1hr
in
rain 24hr
in
rain mn
in
humidity
%
barometer
mb
20260508144509 46 78 0.0 2.6 0.00 0.06 0.01 96 1021.3
20260508144010 46 78 0.0 1.7 0.00 0.06 0.01 96 1021.3
20260508143509 46 78 0.0 2.6 0.01 0.06 0.01 96 1021.3
20260508143011 46 124 0.9 2.6 0.01 0.06 0.01 96 1021.4
20260508142508 46 132 0.0 2.6 0.01 0.06 0.01 96 1021.3
20260508142007 46 81 0.9 3.5 0.01 0.06 0.01 96 1021.3
20260508141508 46 92 0.9 3.5 0.01 0.06 0.01 96 1021.2
20260508141006 46 306 0.9 2.6 0.01 0.06 0.01 97 1021.1
20260508140509 46 85 0.0 3.5 0.01 0.06 0.01 96 1021.2
20260508140011 46 307 0.9 3.5 0.01 0.06 0.01 96 1021.3
20260508135505 46 196 0.0 2.6 0.01 0.06 0.01 96 1021.2
20260508135006 46 84 0.0 4.3 0.01 0.06 0.01 96 1021.2
20260508134505 46 62 0.9 4.3 0.01 0.06 0.01 96 1021.2
20260508134008 46 126 0.9 3.5 0.00 0.05 0.00 95 1021.2
20260508133507 46 93 1.7 3.5 0.00 0.05 0.00 96 1021.2
20260508133008 46 94 0.0 3.5 0.00 0.05 0.00 96 1021.1
20260508132504 46 95 0.9 3.5 0.00 0.05 0.00 97 1021.1
20260508132003 46 68 0.0 3.5 0.00 0.05 0.00 98 1021.2
20260508131503 46 57 0.0 0.0 0.00 0.05 0.00 98 1021.2
20260508131005 45 57 0.0 2.6 0.00 0.05 0.00 97 1021.1
20260508130503 45 38 0.0 2.6 0.00 0.05 0.00 98 1021.2
20260508130003 45 82 0.0 0.9 0.00 0.05 0.00 97 1021.2
20260508125502 45 82 0.0 3.5 0.00 0.09 0.00 97 1021.2
20260508125003 45 74 1.7 3.5 0.00 0.09 0.00 97 1021.1
20260508124502 45 81 0.0 3.5 0.00 0.09 0.00 97 1021.1
20260508124002 45 75 0.0 2.6 0.00 0.09 0.00 97 1021.2
20260508123502 45 74 0.0 2.6 0.00 0.09 0.00 96 1021.3
20260508123001 45 72 0.0 3.5 0.00 0.09 0.00 96 1021.3
20260508122600 45 72 0.0 2.6 0.00 0.09 0.00 96 1021.2
20260508122059 45 66 0.9 2.6 0.00 0.09 0.00 97 1021.2
20260508121559 45 127 0.0 2.6 0.00 0.09 0.00 97 1021.1
20260508121058 45 103 0.0 2.6 0.00 0.09 0.00 97 1021.1
20260508120558 45 104 0.0 4.3 0.00 0.09 0.00 97 1021.1
20260508120101 45 58 0.9 4.3 0.00 0.09 0.00 97 1021.0
20260508115601 45 75 0.0 2.6 0.00 0.09 0.00 97 1020.9
20260508115057 45 94 0.9 3.5 0.00 0.09 0.00 97 1021.1
20260508114557 45 57 1.7 3.5 0.00 0.09 0.00 97 1021.0
20260508114057 45 105 0.9 2.6 0.00 0.09 0.00 96 1021.1
20260508113557 45 59 0.0 3.5 0.00 0.09 0.00 97 1021.0
20260508113058 45 77 0.0 2.6 0.00 0.09 0.00 97 1021.0
20260508112556 45 70 0.0 2.6 0.00 0.09 0.00 97 1021.0
20260508112057 45 81 0.0 0.9 0.00 0.09 0.00 97 1021.1
20260508111603 45 81 0.0 3.5 0.00 0.09 0.00 97 1021.1
20260508111056 45 80 0.9 4.3 0.00 0.09 0.00 96 1021.1
20260508110556 45 65 1.7 4.3 0.00 0.09 0.00 97 1021.1
20260508105555 45 265 0.9 1.7 0.00 0.09 0.00 97 1021.0
20260508105055 45 229 0.0 1.7 0.00 0.09 0.00 97 1021.1
20260508104555 45 75 0.0 3.5 0.00 0.09 0.00 97 1021.0
20260508104054 45 75 0.0 3.5 0.00 0.09 0.00 97 1021.0
20260508103553 44 70 0.0 3.5 0.00 0.09 0.00 97 1021.0
20260508103054 45 71 0.0 3.5 0.00 0.09 0.00 97 1021.0
20260508102551 45 56 0.0 3.5 0.00 0.09 0.00 98 1021.0
20260508102051 45 65 0.9 3.5 0.00 0.09 0.00 98 1020.9
20260508101553 45 106 0.9 2.6 0.00 0.09 0.00 98 1020.9
20260508101051 44 89 0.0 3.5 0.00 0.09 0.00 98 1020.9
20260508100549 44 72 0.9 3.5 0.00 0.09 0.00 98 1020.9
20260508100049 44 76 0.9 3.5 0.00 0.09 0.00 98 1021.0
20260508095551 44 70 0.9 3.5 0.00 0.10 0.00 98 1021.0
20260508095049 44 32 0.9 2.6 0.00 0.10 0.00 98 1020.8
20260508094550 44 75 0.0 2.6 0.00 0.10 0.00 98 1020.8
20260508094049 44 67 0.0 2.6 0.00 0.10 0.00 98 1020.9
20260508093551 44 103 0.0 2.6 0.00 0.10 0.00 98 1021.0
20260508093050 44 17 0.0 2.6 0.00 0.10 0.00 98 1020.8
20260508092548 44 204 0.9 3.5 0.00 0.10 0.00 98 1021.0
20260508092046 44 115 0.9 5.2 0.00 0.10 0.00 98 1020.8
20260508091559 44 93 0.0 5.2 0.00 0.10 0.00 99 1020.8
20260508091045 44 216 0.0 1.7 0.00 0.10 0.00 99 1020.8
20260508090545 44 85 0.0 0.9 0.00 0.10 0.00 99 1020.7
20260508090045 43 84 0.0 3.5 0.00 0.10 0.00 99 1020.7
20260508085544 43 74 0.9 3.5 0.00 0.10 0.00 99 1020.7
20260508085046 43 139 0.9 2.6 0.00 0.10 0.00 99 1020.6
20260508084550 44 86 0.0 3.5 0.00 0.10 0.00 99 1020.6
20260508084043 44 82 0.9 3.5 0.00 0.10 0.00 99 1020.5
20260508083542 43 86 0.0 2.6 0.00 0.10 0.00 99 1020.6
20260508083052 43 95 0.9 5.2 0.00 0.10 0.00 99 1020.4
20260508082541 43 63 0.9 5.2 0.00 0.10 0.00 99 1020.4
20260508082041 43 85 0.9 5.2 0.00 0.10 0.00 99 1020.4
20260508081546 43 90 0.9 3.5 0.00 0.10 0.00 99 1020.4
20260508081041 44 67 1.7 3.5 0.00 0.10 0.00 100 1020.5
20260508080541 44 85 0.0 3.5 0.00 0.10 0.00 100 1020.4
20260508080057 44 97 1.7 3.5 0.00 0.10 0.00 100 1020.3
20260508075539 43 99 0.9 3.5 0.00 0.14 0.00 100 1020.3
20260508075038 43 78 0.9 3.5 0.00 0.14 0.00 100 1020.2
20260508074638 43 86 0.9 5.2 0.00 0.14 0.00 100 1020.1
20260508074037 43 73 0.9 7.0 0.00 0.14 0.00 100 1020.1
20260508073537 43 76 1.7 7.8 0.00 0.14 0.00 100 1020.0
20260508073043 43 69 2.6 7.8 0.00 0.14 0.00 100 1019.9
20260508072534 43 100 1.7 4.3 0.00 0.14 0.00 100 1020.0
20260508072034 43 82 0.9 5.2 0.00 0.14 0.00 100 1019.9
20260508071534 43 74 0.0 3.5 0.00 0.14 0.00 100 1019.8
20260508071032 43 69 0.9 2.6 0.00 0.14 0.00 100 1019.8
20260508070531 43 61 0.0 2.6 0.00 0.14 0.00 100 1019.8
20260508070033 43 61 0.9 4.3 0.00 0.14 0.00 100 1019.6
20260508065534 43 31 0.0 5.2 0.00 0.16 0.00 100 1019.7
20260508065029 43 89 0.0 5.2 0.00 0.16 0.00 100 1019.6
20260508064540 42 127 0.0 5.2 0.00 0.16 0.00 100 1019.5
20260508064029 42 127 1.7 5.2 0.00 0.16 0.00 100 1019.5
20260508063528 42 140 0.9 5.2 0.00 0.16 0.00 100 1019.4
20260508063028 42 86 0.9 4.3 0.00 0.16 0.00 99 1019.4
20260508062526 42 74 1.7 4.3 0.00 0.16 0.00 100 1019.4
20260508062026 42 69 0.9 3.5 0.00 0.16 0.00 100 1019.4
20260508061527 42 76 0.9 3.5 0.00 0.16 0.00 99 1019.4
20260508061025 42 76 0.9 3.5 0.00 0.16 0.00 100 1019.3
20260508060524 42 97 0.9 3.5 0.00 0.16 0.00 99 1019.2
20260508060022 42 88 1.7 3.5 0.00 0.16 0.00 99 1019.1
20260508055524 42 158 0.0 3.5 0.00 0.17 0.00 99 1019.1
20260508055022 42 90 0.9 2.6 0.00 0.17 0.00 99 1019.1
20260508054537 42 277 0.0 5.2 0.00 0.17 0.00 99 1019.0
20260508054021 42 99 0.0 5.2 0.00 0.17 0.00 99 1018.9
20260508053521 42 61 0.9 4.3 0.00 0.17 0.00 99 1018.8
20260508053021 42 66 0.9 4.3 0.00 0.17 0.00 99 1018.9
20260508052520 42 121 0.9 3.5 0.00 0.17 0.00 99 1018.9
20260508052019 42 94 0.9 3.5 0.00 0.17 0.00 99 1019.0
20260508051520 42 102 0.9 3.5 0.00 0.17 0.00 99 1018.8
20260508051020 42 275 0.0 3.5 0.00 0.17 0.00 99 1019.0
20260508050518 42 93 0.9 3.5 0.00 0.17 0.00 99 1018.8
20260508050018 42 93 0.9 4.3 0.00 0.17 0.00 99 1018.7
20260508045518 42 64 0.9 4.3 0.00 0.17 0.00 99 1018.6
20260508045017 42 90 1.7 5.2 0.00 0.17 0.00 100 1018.6
20260508044517 42 82 0.9 2.6 0.00 0.17 0.00 100 1018.6
20260508044017 42 222 0.0 2.6 0.00 0.17 0.00 99 1018.5
20260508043515 42 225 0.0 1.7 0.00 0.17 0.00 99 1018.5
20260508043014 42 240 0.0 2.6 0.00 0.17 0.00 99 1018.5
20260508042513 42 227 0.0 2.6 0.00 0.17 0.00 99 1018.6
20260508042011 42 137 0.0 1.7 0.00 0.17 0.00 99 1018.5
20260508041511 42 86 0.0 0.0 0.00 0.17 0.00 99 1018.6
20260508041011 42 86 0.0 2.6 0.00 0.17 0.00 99 1018.6
20260508040511 42 86 0.0 2.6 0.00 0.17 0.00 99 1018.6
20260508040032 42 76 0.0 1.7 0.00 0.17 0.00 99 1018.7
20260508035508 42 75 0.0 3.5 0.00 0.22 0.00 99 1018.6
20260508035012 42 75 0.9 3.5 0.00 0.22 0.00 99 1018.6
20260508034507 42 72 0.0 2.6 0.00 0.22 0.00 99 1018.6
20260508034006 41 72 0.0 2.6 0.00 0.22 0.00 99 1018.5
20260508033505 42 97 0.9 2.6 0.00 0.22 0.00 99 1018.5
20260508033006 42 103 0.0 0.0 0.00 0.22 0.00 99 1018.4
20260508032504 42 96 0.0 1.7 0.00 0.22 0.00 99 1018.3
20260508032005 42 42 0.0 1.7 0.00 0.22 0.00 99 1018.3
20260508031512 42 43 0.0 1.7 0.00 0.22 0.00 99 1018.3
20260508031002 42 292 0.0 3.5 0.00 0.22 0.00 99 1018.2
20260508030504 42 42 0.0 3.5 0.00 0.22 0.00 99 1018.2
20260508030003 42 119 0.0 3.5 0.00 0.22 0.00 99 1018.2
20260508025503 42 75 0.0 3.5 0.00 0.27 0.00 99 1018.1
20260508025002 42 81 1.7 3.5 0.00 0.27 0.00 99 1018.2
20260508024501 42 108 0.0 1.7 0.00 0.27 0.00 99 1018.1
20260508024002 42 111 0.0 1.7 0.00 0.27 0.00 99 1018.1
20260508023601 42 110 0.0 1.7 0.00 0.27 0.00 99 1018.1
20260508023101 42 40 0.0 0.9 0.00 0.27 0.00 99 1018.2
20260508022559 42 40 0.0 1.7 0.00 0.27 0.00 99 1018.1
20260508022058 42 36 0.0 1.7 0.00 0.27 0.00 99 1018.2
20260508021558 42 344 0.0 1.7 0.00 0.27 0.00 99 1018.3
20260508021058 42 339 0.0 1.7 0.00 0.27 0.00 99 1018.2
20260508020558 42 338 0.0 0.9 0.00 0.27 0.00 99 1018.3
20260508020059 42 337 0.0 1.7 0.00 0.27 0.00 99 1018.2
20260508015557 42 336 0.0 3.5 0.00 0.28 0.00 99 1018.2
20260508015056 42 329 0.0 3.5 0.00 0.28 0.00 99 1018.1
20260508014556 42 153 0.0 1.7 0.00 0.28 0.00 99 1018.2
20260508014056 42 153 0.0 2.6 0.00 0.28 0.00 99 1018.1
20260508013557 42 71 0.0 3.5 0.00 0.28 0.00 99 1018.1
20260508013055 42 65 0.0 3.5 0.00 0.28 0.00 99 1018.0
20260508012554 42 98 0.9 3.5 0.00 0.28 0.00 99 1018.0
20260508012055 42 59 0.9 3.5 0.00 0.28 0.00 99 1018.0
20260508011553 42 85 0.0 5.2 0.00 0.28 0.00 99 1018.1
20260508011052 42 78 1.7 5.2 0.00 0.28 0.00 99 1017.9
20260508010552 42 124 0.0 1.7 0.00 0.28 0.00 99 1017.8
20260508010052 42 115 0.0 5.2 0.00 0.28 0.00 99 1017.8
20260508005551 42 88 0.9 5.2 0.00 0.35 0.00 99 1017.7
20260508005050 42 116 0.9 4.3 0.00 0.35 0.00 99 1017.7
20260508004553 42 327 0.0 4.3 0.00 0.35 0.00 99 1017.7
20260508004050 42 75 0.0 3.5 0.00 0.35 0.00 99 1017.7
20260508003554 42 103 0.0 2.6 0.00 0.35 0.00 99 1017.7
20260508003051 42 103 0.0 2.6 0.00 0.35 0.00 99 1017.7
20260508002547 42 103 0.0 7.8 0.00 0.35 0.00 99 1017.7
20260508002048 42 72 0.9 7.8 0.00 0.35 0.00 99 1017.8
20260508001547 42 102 0.9 2.6 0.00 0.35 0.00 99 1017.8
20260508001046 42 72 0.0 2.6 0.00 0.35 0.00 99 1017.8
20260508000546 42 71 0.9 2.6 0.00 0.35 0.00 99 1017.7
20260508000050 42 98 0.0 2.6 0.00 0.35 0.00 99 1017.8
20260507235550 42 80 0.0 2.6 0.00 0.46 0.00 99 1017.9
20260507235046 42 62 0.9 4.3 0.00 0.46 0.00 99 1017.8
20260507234553 42 61 0.0 4.3 0.00 0.46 0.00 99 1017.9
20260507234045 42 104 0.0 2.6 0.00 0.46 0.00 99 1017.8
20260507233545 42 69 0.0 4.3 0.00 0.46 0.00 99 1017.8
20260507233108 42 41 0.0 5.2 0.00 0.46 0.00 99 1017.9
20260507232543 42 289 1.7 5.2 0.00 0.46 0.00 99 1017.7
20260507232047 42 90 0.0 3.5 0.00 0.46 0.00 99 1017.7
20260507231542 42 70 0.0 2.6 0.00 0.46 0.00 99 1017.8
20260507231042 42 81 0.0 4.3 0.00 0.46 0.00 99 1017.8
20260507230541 42 63 1.7 4.3 0.00 0.46 0.00 99 1017.8
20260507230046 42 63 1.7 4.3 0.00 0.46 0.00 99 1017.7
20260507225540 43 98 0.9 4.3 0.00 0.49 0.00 99 1017.9
20260507225041 43 140 0.9 2.6 0.00 0.49 0.00 99 1017.8
20260507224540 43 224 0.0 1.7 0.00 0.49 0.00 99 1017.7
20260507224143 43 225 0.0 1.7 0.00 0.49 0.00 99 1017.8
20260507223540 43 219 0.0 6.1 0.00 0.49 0.00 99 1017.7
20260507223054 43 80 1.7 6.1 0.00 0.49 0.00 99 1017.8
20260507222540 43 65 0.9 5.2 0.00 0.49 0.00 99 1017.7
20260507222038 43 78 0.9 5.2 0.00 0.49 0.00 99 1017.7
20260507221542 43 68 0.9 3.5 0.00 0.49 0.00 99 1017.8
20260507221037 43 76 0.9 3.5 0.00 0.49 0.00 99 1017.6
20260507220537 43 88 0.0 3.5 0.00 0.49 0.00 99 1017.7
20260507220038 43 79 0.9 4.3 0.00 0.49 0.00 99 1017.7
20260507215534 43 76 0.9 4.3 0.00 0.49 0.49 99 1017.6
20260507215034 43 56 0.9 3.5 0.00 0.49 0.49 99 1017.6
20260507214533 43 99 0.0 3.5 0.00 0.49 0.49 99 1017.6
20260507214035 43 88 0.0 4.3 0.00 0.49 0.49 99 1017.7
20260507213535 43 46 0.0 5.2 0.00 0.49 0.49 99 1017.7
20260507213034 43 63 0.9 5.2 0.00 0.49 0.49 99 1017.6
20260507212531 43 105 0.9 7.8 0.00 0.49 0.49 99 1017.5
20260507212032 43 90 1.7 7.8 0.00 0.49 0.49 99 1017.5
20260507211536 43 77 0.0 3.5 0.00 0.49 0.49 99 1017.4
20260507211028 43 53 0.9 5.2 0.00 0.49 0.49 99 1017.3
20260507210528 43 144 0.9 5.2 0.00 0.49 0.49 99 1017.5
20260507210031 43 99 0.0 3.5 0.00 0.49 0.49 99 1017.4
20260507205527 43 86 0.0 3.5 0.00 0.49 0.49 99 1017.3
20260507205026 43 79 0.9 5.2 0.00 0.49 0.49 99 1017.4
20260507204526 43 103 0.0 2.6 0.00 0.49 0.49 99 1017.3
20260507204027 43 136 0.0 2.6 0.00 0.49 0.49 99 1017.3
20260507203525 43 80 0.0 4.3 0.00 0.49 0.49 99 1017.3
20260507203026 43 52 0.0 4.3 0.00 0.49 0.49 99 1017.2
20260507202523 43 74 0.9 3.5 0.00 0.49 0.49 99 1017.1
20260507202026 43 79 1.7 3.5 0.00 0.49 0.49 99 1017.1
20260507201522 43 51 0.0 2.6 0.00 0.49 0.49 99 1017.1
20260507201022 43 95 0.9 5.2 0.00 0.49 0.49 99 1016.9
20260507200521 43 92 0.9 5.2 0.00 0.49 0.49 99 1016.9
20260507200022 43 113 0.9 7.0 0.00 0.49 0.49 99 1016.9
20260507195522 43 80 0.9 2.6 0.00 0.49 0.49 99 1016.8
20260507195020 43 81 0.0 6.1 0.00 0.49 0.49 99 1016.6
20260507194531 43 71 2.6 7.8 0.00 0.49 0.49 99 1016.6
20260507194018 43 315 0.9 7.8 0.00 0.49 0.49 99 1016.5
20260507193519 43 117 0.0 5.2 0.01 0.49 0.49 99 1016.5
20260507193018 43 128 0.9 5.2 0.01 0.49 0.49 99 1016.5
20260507192517 44 82 0.9 5.2 0.01 0.49 0.49 99 1016.3
20260507192015 44 59 0.9 4.3 0.01 0.49 0.49 99 1016.3
20260507191514 44 98 1.7 5.2 0.01 0.49 0.49 99 1016.2
20260507191018 44 110 0.9 5.2 0.01 0.49 0.49 99 1016.1
20260507190513 44 86 0.9 5.2 0.01 0.49 0.49 99 1016.1
20260507190018 44 49 1.7 4.3 0.01 0.49 0.49 99 1016.0
20260507185514 44 87 0.0 4.3 0.01 0.49 0.49 99 1015.9
20260507185013 44 67 0.0 5.2 0.01 0.49 0.49 99 1015.8
20260507184510 44 119 0.9 6.1 0.01 0.49 0.49 99 1015.7
20260507184011 44 110 0.9 6.1 0.01 0.49 0.49 99 1015.7
20260507183509 44 62 0.9 4.3 0.00 0.48 0.48 98 1015.6
20260507183013 44 73 0.9 5.2 0.00 0.48 0.48 98 1015.5
20260507182508 45 91 0.9 5.2 0.00 0.48 0.48 99 1015.5
20260507182009 45 109 1.7 5.2 0.00 0.48 0.48 99 1015.5
20260507181506 45 134 0.9 2.6 0.00 0.48 0.48 99 1015.3
20260507181006 45 137 0.0 2.6 0.01 0.48 0.48 99 1015.2
20260507180505 45 163 0.9 7.0 0.01 0.48 0.48 98 1015.3
20260507180005 45 123 0.9 7.0 0.01 0.48 0.48 98 1015.2
20260507175504 45 243 0.0 3.5 0.01 0.48 0.48 98 1015.2
20260507175004 45 74 0.0 4.3 0.01 0.48 0.48 98 1015.3
20260507174509 45 76 0.0 4.3 0.01 0.48 0.48 98 1015.2
20260507174001 45 113 0.9 2.6 0.02 0.48 0.48 99 1015.3
20260507173503 45 82 0.0 3.5 0.02 0.48 0.48 98 1015.2
20260507173118 45 82 0.9 3.5 0.02 0.48 0.48 98 1015.1
20260507172559 45 120 0.0 5.2 0.02 0.48 0.48 98 1015.0
20260507172058 45 159 0.0 2.6 0.02 0.48 0.48 98 1015.0
20260507171557 45 151 0.0 3.5 0.02 0.48 0.48 98 1014.8
20260507171057 45 77 0.9 8.7 0.01 0.47 0.47 98 1014.7
20260507170556 45 98 0.9 8.7 0.01 0.47 0.47 98 1014.7
20260507170058 45 160 0.0 4.3 0.01 0.47 0.47 98 1014.7
20260507165555 46 91 0.0 4.3 0.01 0.47 0.47 98 1014.7
20260507165055 46 90 0.9 5.2 0.01 0.47 0.47 98 1014.6
20260507164628 46 94 0.0 3.5 0.01 0.47 0.47 98 1014.6
20260507164054 46 11 0.9 3.5 0.00 0.46 0.46 98 1014.6
20260507163552 46 90 0.9 3.5 0.00 0.46 0.46 98 1014.5
20260507163055 46 71 0.0 3.5 0.00 0.46 0.46 98 1014.4
20260507162551 46 75 0.0 2.6 0.00 0.46 0.46 98 1014.5
20260507162052 46 63 0.0 5.2 0.00 0.46 0.46 98 1014.5
20260507161556 46 88 0.9 4.3 0.00 0.46 0.46 98 1014.5
20260507161051 46 71 0.0 7.0 0.00 0.46 0.46 98 1014.3
20260507160548 47 52 0.9 7.0 0.00 0.46 0.46 98 1014.3
20260507160048 47 70 0.9 4.3 0.00 0.46 0.46 98 1014.3
20260507155547 47 94 0.9 6.1 0.00 0.46 0.46 98 1014.3
20260507155048 47 5 0.9 6.1 0.00 0.46 0.46 98 1014.5
20260507154548 47 95 1.7 5.2 0.00 0.46 0.46 98 1014.4
20260507154046 47 71 0.0 5.2 0.00 0.46 0.46 98 1014.3
20260507153549 47 101 0.0 4.3 0.01 0.46 0.46 98 1014.3
20260507153046 47 52 0.0 4.3 0.01 0.46 0.46 98 1014.2
20260507152547 47 42 0.9 3.5 0.01 0.46 0.46 98 1014.0
20260507152044 47 71 0.0 3.5 0.02 0.46 0.46 98 1014.1
20260507151545 47 44 0.9 5.2 0.02 0.46 0.46 98 1013.9
20260507151047 47 90 0.9 5.2 0.02 0.46 0.46 98 1013.9
20260507150541 47 81 0.9 3.5 0.02 0.46 0.46 98 1013.8
20260507150045 47 42 0.9 3.5 0.02 0.46 0.46 98 1013.7
20260507145541 47 55 0.0 3.5 0.02 0.46 0.46 98 1013.7
20260507145041 47 57 0.9 3.5 0.02 0.46 0.46 98 1013.6